Weather History for Hoquiam, WA

Change the Weather History Date:

Tuesday, February 4, 2014

  Actual Average Record
Temperature  
Mean Temperature 35 °F 43 °F  
Max Temperature 40 °F 49 °F 62 °F (1993)
Min Temperature 30 °F 38 °F 19 °F (1989)
Degree Days  
Heating Degree Days 30 22  
Month to date heating degree days 105 88  
Cooling Degree Days 0 0  
Month to date cooling degree days 0 0  
Year to date cooling degree days 0 0  
Moisture  
Dew Point 21 °F    
Average Humidity 57    
Maximum Humidity 69    
Minimum Humidity 44    
Precipitation  
Precipitation 0.00 in 0.29 in 2.11 in (1961)
Month to date precipitation 0.04 1.13  
Year to date precipitation 6.54 11.46  
Sea Level Pressure  
Sea Level Pressure 30.27 in    
Wind  
Wind Speed 10 mph (NE)    
Max Wind Speed 18 mph    
Max Gust Speed 29 mph    
Visibility 7 miles    
Events      
T = Trace of Precipitation, MM = Missing Value Source: NWS Daily Summary

Daily Weather History Graph

Daily Weather History Graph

Search for Another Location

Airport:

Trip Planner

Search our weather history database for the weather conditions in past years. The results will help you decide how hot, cold, wet, or windy it might be!

Date:

Astronomy

Feb. 04, 2014 Rise Set
Actual Time 7:36 AM PST 5:23 PM PST
Civil Twilight 7:04 AM PST 5:55 PM PST
Nautical Twilight 6:27 AM PST 6:32 PM PST
Astronomical Twilight 5:52 AM PST 7:07 PM PST
Moon 9:53 AM PST (2/4) 11:50 PM PST (2/4)
Length of Visible Light 10h 51m
Length of Day
9h 47m
Waxing Crescent, 30% of the Moon is Illuminated
Feb 4
Waxing Crescent
Feb 6
First Quarter
Feb 14
Full
Feb 22
Last Quarter
Mar 1
New

Hourly Weather History & Observations

Time (PST) Temp. Windchill Dew Point Humidity Pressure Visibility Wind Dir Wind Speed Gust Speed Precip Events Conditions
12:53 AM 32.0 °F 24.8 °F 21.0 °F 64% 30.19 in 9.0 mi ENE 8.1 mph - N/A   Overcast
1:53 AM 32.0 °F 27.5 °F 19.0 °F 59% 30.20 in 9.0 mi NE 4.6 mph - N/A   Scattered Clouds
2:53 AM 30.9 °F 26.2 °F 21.9 °F 69% 30.21 in 9.0 mi ENE 4.6 mph - N/A   Overcast
3:53 AM 32.0 °F 27.5 °F 21.9 °F 66% 30.21 in 9.0 mi NE 4.6 mph - N/A   Overcast
4:53 AM 32.0 °F 27.5 °F 19.9 °F 61% 30.23 in 9.0 mi NE 4.6 mph - N/A   Overcast
5:53 AM 32.0 °F 24.8 °F 21.0 °F 64% 30.23 in 9.0 mi NE 8.1 mph - N/A   Overcast
6:53 AM 32.0 °F 24.2 °F 17.1 °F 54% 30.23 in 9.0 mi NE 9.2 mph - N/A   Partly Cloudy
7:53 AM 30.9 °F 24.3 °F 18.0 °F 59% 30.24 in 8.0 mi NE 6.9 mph - N/A   Clear
8:37 AM 32.0 °F 23.0 °F 19.9 °F 61% 30.24 in 1.8 mi NE 11.5 mph - N/A   Haze
8:51 AM 33.8 °F 25.8 °F 19.4 °F 56% 30.25 in 8.0 mi NE 10.4 mph - N/A   Clear
8:53 AM 33.1 °F 24.4 °F 19.9 °F 59% 30.26 in 8.0 mi NE 11.5 mph - N/A   Clear
9:02 AM 33.1 °F 24.9 °F 19.9 °F 59% 30.25 in 1.8 mi NE 10.4 mph - N/A   Haze
9:13 AM 34.0 °F 25.5 °F 21.0 °F 59% 30.25 in 7.0 mi NE 11.5 mph - N/A   Clear
9:53 AM 35.1 °F 27.9 °F 21.9 °F 59% 30.28 in 8.0 mi NE 9.2 mph - N/A   Clear
10:19 AM 36.0 °F 27.1 °F 21.0 °F 55% 30.27 in 0.8 mi NE 13.8 mph - N/A   Haze
10:29 AM 37.0 °F 29.3 °F 21.9 °F 54% 30.27 in 2.5 mi NE 11.5 mph - N/A   Haze
10:42 AM 37.0 °F 28.9 °F 23.0 °F 57% 30.27 in 1.5 mi NE 12.7 mph - N/A   Haze
10:51 AM 37.4 °F 27.8 °F 21.2 °F 52% 30.27 in 8.0 mi ENE 17.3 mph 21.9 mph N/A   Clear
10:53 AM 37.0 °F 27.7 °F 21.9 °F 54% 30.28 in 7.0 mi ENE 16.1 mph 21.9 mph N/A   Clear
11:10 AM 37.0 °F 28.1 °F 21.9 °F 54% 30.27 in 1.5 mi ENE 15.0 mph 24.2 mph N/A   Haze
11:19 AM 37.9 °F 30.5 °F 21.0 °F 51% 30.28 in 0.5 mi ENE 11.5 mph - N/A   Haze
11:53 AM 39.0 °F 32.3 °F 21.9 °F 50% 30.28 in 0.5 mi ENE 10.4 mph - N/A   Haze
12:24 PM 39.0 °F 31.0 °F 19.9 °F 46% 30.26 in - NE 13.8 mph - N/A   Clear
12:53 PM 39.0 °F 30.6 °F 23.0 °F 53% 30.27 in 9.0 mi East 15.0 mph - N/A   Clear
1:53 PM 39.9 °F 33.4 °F 23.0 °F 51% 30.25 in 9.0 mi ENE 10.4 mph - N/A   Clear
2:53 PM 39.0 °F 31.8 °F 19.9 °F 46% 30.26 in 9.0 mi NE 11.5 mph - N/A   Mostly Cloudy
3:53 PM 39.0 °F 30.6 °F 19.9 °F 46% 30.27 in 9.0 mi NE 15.0 mph - N/A   Clear
4:53 PM 36.0 °F 27.1 °F 21.0 °F 55% 30.27 in 9.0 mi ENE 13.8 mph 21.9 mph N/A   Scattered Clouds
5:53 PM 34.0 °F 25.5 °F 19.9 °F 56% 30.29 in 10.0 mi ENE 11.5 mph - N/A   Clear
6:53 PM 33.1 °F 24.4 °F 19.9 °F 59% 30.31 in 10.0 mi ENE 11.5 mph - N/A   Scattered Clouds
7:53 PM 32.0 °F 22.5 °F 21.0 °F 64% 30.32 in 10.0 mi NE 12.7 mph 25.3 mph N/A   Scattered Clouds
8:53 PM 32.0 °F 23.0 °F 21.9 °F 66% 30.33 in 9.0 mi ENE 11.5 mph 21.9 mph N/A   Overcast
9:53 PM 30.9 °F 20.7 °F 19.9 °F 64% 30.34 in 10.0 mi NE 13.8 mph - N/A   Scattered Clouds
10:53 PM 30.9 °F 20.7 °F 19.0 °F 61% 30.36 in 10.0 mi NE 13.8 mph - N/A   Mostly Cloudy
11:53 PM 30.0 °F 20.5 °F 18.0 °F 61% 30.37 in 10.0 mi ENE 11.5 mph - N/A   Mostly Cloudy